| time (UTC) | temp C | wind direction | speed KPH | gust KPH | rain 1hr cm | rain 24hr cm | rain mn cm | humidity % | barometer mb |
| 20260903211524 | 33 | 193 | 3.2 | 16.1 | 0.00 | 0.00 | 0.00 | 61 | 1012.9 |
| 20260903210526 | 33 | 273 | 4.8 | 17.7 | 0.00 | 0.00 | 0.00 | 60 | 1013.0 |
| 20260903204407 | 34 | 257 | 3.2 | 16.1 | 0.00 | 0.00 | 0.00 | 58 | 1013.1 |
| 20260903203352 | 34 | 243 | 3.2 | 12.9 | 0.00 | 0.00 | 0.00 | 57 | 1013.2 |
| 20260903202404 | 34 | 267 | 3.2 | 14.5 | 0.00 | 0.00 | 0.00 | 57 | 1013.3 |
| 20260903201336 | 34 | 314 | 4.8 | 14.5 | 0.00 | 0.00 | 0.00 | 57 | 1013.5 |
| 20260903195211 | 34 | 270 | 3.2 | 12.9 | 0.00 | 0.00 | 0.00 | 56 | 1013.9 |
| 20260903194144 | 34 | 261 | 3.2 | 12.9 | 0.00 | 0.00 | 0.00 | 57 | 1014.1 |
| 20260903193141 | 33 | 275 | 1.6 | 9.7 | 0.00 | 0.00 | 0.00 | 58 | 1014.2 |
| 20260903192146 | 33 | 279 | 1.6 | 9.7 | 0.00 | 0.00 | 0.00 | 56 | 1014.3 |
| 20260903191121 | 33 | 231 | 0.0 | 12.9 | 0.00 | 0.00 | 0.00 | 58 | 1014.5 |
| 20260903190109 | 33 | 260 | 1.6 | 12.9 | 0.00 | 0.00 | 0.00 | 59 | 1014.6 |
| 20260903183946 | 33 | 228 | 1.6 | 17.7 | 0.00 | 0.00 | 0.00 | 59 | 1014.8 |
| 20260903182935 | 33 | 267 | 4.8 | 17.7 | 0.00 | 0.00 | 0.00 | 57 | 1014.6 |
| 20260903181918 | 33 | 286 | 4.8 | 12.9 | 0.00 | 0.53 | 0.00 | 58 | 1014.9 |
| 20260903180903 | 32 | 268 | 1.6 | 8.0 | 0.00 | 0.94 | 0.00 | 60 | 1015.0 |
| 20260903175915 | 32 | 244 | 0.0 | 4.8 | 0.00 | 0.99 | 0.00 | 61 | 1015.0 |
| 20260903174936 | 32 | 271 | 1.6 | 6.4 | 0.00 | 0.99 | 0.00 | 59 | 1014.9 |
| 20260903172816 | 32 | 229 | 3.2 | 11.3 | 0.00 | 0.99 | 0.00 | 63 | 1015.8 |
| 20260903171812 | 31 | 265 | 3.2 | 11.3 | 0.00 | 0.99 | 0.00 | 65 | 1016.1 |
| 20260903170822 | 30 | 310 | 1.6 | 1.6 | 0.00 | 0.99 | 0.00 | 67 | 1016.2 |
| 20260903165758 | 30 | 326 | 0.0 | 9.7 | 0.00 | 0.99 | 0.00 | 70 | 1016.4 |
| 20260903163716 | 28 | 107 | 0.0 | 0.0 | 0.00 | 0.99 | 0.00 | 78 | 1016.6 |
| 20260903162652 | 27 | 101 | 0.0 | 0.0 | 0.00 | 0.99 | 0.00 | 81 | 1016.9 |
| 20260903161627 | 27 | 102 | 0.0 | 0.0 | 0.00 | 0.99 | 0.00 | 81 | 1017.1 |
| 20260903160556 | 27 | 102 | 0.0 | 0.0 | 0.00 | 0.99 | 0.00 | 82 | 1017.4 |
| 20260903155539 | 27 | 104 | 0.0 | 1.6 | 0.00 | 0.99 | 0.00 | 82 | 1017.5 |
| 20260903154528 | 27 | 338 | 0.0 | 8.0 | 0.00 | 0.99 | 0.00 | 81 | 1018.1 |
| 20260903152325 | 28 | 307 | 0.0 | 4.8 | 0.00 | 0.99 | 0.00 | 77 | 1017.1 |
| 20260903151309 | 28 | 266 | 0.0 | 9.7 | 0.00 | 0.99 | 0.00 | 80 | 1017.0 |
| 20260903150243 | 28 | 268 | 0.0 | 1.6 | 0.00 | 0.99 | 0.00 | 79 | 1017.1 |
| 20260903145213 | 28 | 260 | 0.0 | 6.4 | 0.00 | 0.99 | 0.00 | 80 | 1017.0 |
| 20260903144224 | 27 | 206 | 3.2 | 11.3 | 0.00 | 0.99 | 0.00 | 81 | 1017.0 |
| 20260903143204 | 27 | 168 | 1.6 | 11.3 | 0.00 | 0.99 | 0.00 | 83 | 1016.8 |
| 20260903142213 | 26 | 220 | 1.6 | 8.0 | 0.00 | 0.99 | 0.00 | 87 | 1016.7 |
| 20260903141200 | 25 | 179 | 1.6 | 16.1 | 0.00 | 0.99 | 0.00 | 88 | 1016.4 |
| 20260903140139 | 25 | 165 | 3.2 | 16.1 | 0.00 | 0.99 | 0.00 | 88 | 1016.5 |
| 20260903135202 | 25 | 169 | 3.2 | 4.8 | 0.00 | 0.99 | 0.00 | 89 | 1016.4 |
| 20260903134211 | 24 | 250 | 1.6 | 9.7 | 0.00 | 0.99 | 0.00 | 89 | 1016.4 |
| 20260903133234 | 24 | 165 | 3.2 | 9.7 | 0.00 | 0.99 | 0.00 | 90 | 1016.5 |
| 20260903132253 | 24 | 154 | 0.0 | 4.8 | 0.00 | 0.99 | 0.00 | 91 | 1016.7 |
| 20260903131227 | 24 | 178 | 0.0 | 1.6 | 0.00 | 0.99 | 0.00 | 92 | 1017.1 |
| 20260903130248 | 23 | 180 | 0.0 | 1.6 | 0.00 | 0.99 | 0.00 | 93 | 1017.3 |
| 20260903125306 | 23 | 154 | 0.0 | 6.4 | 0.00 | 0.99 | 0.00 | 94 | 1017.5 |
| 20260903124326 | 23 | 152 | 0.0 | 0.0 | 0.00 | 0.99 | 0.00 | 94 | 1017.7 |
| 20260903122210 | 23 | 51 | 0.0 | 1.6 | 0.00 | 0.99 | 0.00 | 94 | 1017.9 |
| 20260903120045 | 23 | 47 | 0.0 | 0.0 | 0.00 | 0.99 | 0.00 | 95 | 1018.1 |
| 20260903115023 | 23 | 47 | 0.0 | 1.6 | 0.00 | 0.99 | 0.00 | 95 | 1018.0 |
| 20260903112821 | 23 | 23 | 0.0 | 3.2 | 0.00 | 0.99 | 0.00 | 95 | 1018.1 |
| 20260903111801 | 23 | 23 | 0.0 | 4.8 | 0.00 | 0.99 | 0.00 | 95 | 1017.8 |
| 20260903110756 | 22 | 23 | 0.0 | 0.0 | 0.00 | 0.99 | 0.00 | 95 | 1017.1 |
| 20260903105750 | 22 | 23 | 0.0 | 0.0 | 0.00 | 0.99 | 0.00 | 95 | 1017.0 |
| 20260903103549 | 22 | 23 | 0.0 | 0.0 | 0.00 | 0.99 | 0.00 | 94 | 1016.5 |
| 20260903102552 | 22 | 23 | 0.0 | 6.4 | 0.00 | 0.99 | 0.00 | 94 | 1016.5 |
| 20260903101538 | 22 | 162 | 0.0 | 0.0 | 0.00 | 0.99 | 0.00 | 94 | 1016.1 |
| 20260903100535 | 22 | 162 | 0.0 | 0.0 | 0.00 | 0.99 | 0.00 | 94 | 1015.9 |
| 20260903095548 | 22 | 162 | 0.0 | 0.0 | 0.00 | 0.99 | 0.00 | 94 | 1016.0 |
| 20260903094534 | 22 | 162 | 0.0 | 0.0 | 0.00 | 0.99 | 0.00 | 94 | 1016.0 |
| 20260903093504 | 22 | 162 | 0.0 | 0.0 | 0.00 | 0.99 | 0.00 | 94 | 1016.2 |
| 20260903092510 | 22 | 162 | 0.0 | 0.0 | 0.00 | 0.99 | 0.00 | 94 | 1016.3 |
| 20260903091439 | 22 | 162 | 0.0 | 0.0 | 0.00 | 0.99 | 0.00 | 94 | 1016.3 |
| 20260903090429 | 22 | 162 | 0.0 | 0.0 | 0.00 | 0.99 | 0.00 | 93 | 1016.2 |
| 20260903085432 | 22 | 162 | 0.0 | 0.0 | 0.00 | 0.99 | 0.00 | 93 | 1016.3 |
| 20260903084453 | 23 | 162 | 0.0 | 1.6 | 0.00 | 0.99 | 0.00 | 93 | 1016.1 |
| 20260903083444 | 23 | 162 | 0.0 | 4.8 | 0.00 | 0.99 | 0.00 | 93 | 1015.8 |
| 20260903082420 | 23 | 162 | 0.0 | 0.0 | 0.00 | 0.99 | 0.00 | 93 | 1015.9 |
| 20260903081354 | 23 | 162 | 0.0 | 0.0 | 0.00 | 0.99 | 0.00 | 93 | 1015.9 |
| 20260903075307 | 23 | 167 | 0.0 | 8.0 | 0.00 | 0.99 | 0.00 | 93 | 1015.9 |
| 20260903073107 | 23 | 117 | 0.0 | 8.0 | 0.00 | 0.99 | 0.00 | 93 | 1016.1 |
| 20260903072036 | 22 | 168 | 0.0 | 8.0 | 0.00 | 0.99 | 0.00 | 93 | 1016.0 |
| 20260903071015 | 22 | 138 | 0.0 | 4.8 | 0.00 | 0.99 | 0.00 | 93 | 1016.0 |
| 20260903070005 | 23 | 111 | 0.0 | 4.8 | 0.00 | 0.99 | 0.00 | 93 | 1016.0 |
| 20260903064946 | 23 | 124 | 0.0 | 1.6 | 0.00 | 0.99 | 0.00 | 93 | 1016.0 |
| 20260903063934 | 23 | 160 | 0.0 | 9.7 | 0.00 | 0.99 | 0.00 | 93 | 1016.1 |
| 20260903061736 | 23 | 145 | 0.0 | 0.0 | 0.00 | 0.99 | 0.00 | 93 | 1016.2 |
| 20260903060744 | 23 | 145 | 0.0 | 0.0 | 0.00 | 0.99 | 0.00 | 93 | 1016.2 |
| 20260903055743 | 23 | 138 | 1.6 | 6.4 | 0.00 | 0.99 | 0.00 | 93 | 1016.1 |
| 20260903054754 | 23 | 107 | 0.0 | 4.8 | 0.00 | 0.99 | 0.00 | 94 | 1016.4 |
| 20260903053725 | 23 | 106 | 0.0 | 0.0 | 0.00 | 0.99 | 0.00 | 94 | 1016.3 |
| 20260903052746 | 22 | 106 | 0.0 | 3.2 | 0.00 | 0.99 | 0.00 | 94 | 1016.3 |
| 20260903051753 | 22 | 106 | 0.0 | 0.0 | 0.00 | 0.99 | 0.00 | 94 | 1016.3 |
| 20260903050735 | 22 | 106 | 0.0 | 0.0 | 0.00 | 0.99 | 0.00 | 94 | 1016.5 |
| 20260903045746 | 22 | 106 | 0.0 | 0.0 | 0.00 | 0.99 | 0.00 | 94 | 1016.6 |
| 20260903044743 | 22 | 106 | 0.0 | 0.0 | 0.00 | 0.99 | 0.00 | 94 | 1016.7 |
| 20260903043731 | 22 | 106 | 0.0 | 0.0 | 0.00 | 0.99 | 0.00 | 94 | 1016.7 |
| 20260903042710 | 22 | 106 | 0.0 | 0.0 | 0.00 | 0.99 | 0.00 | 94 | 1016.7 |
| 20260903040623 | 22 | 106 | 0.0 | 0.0 | 0.00 | 0.99 | 0.00 | 94 | 1017.0 |
| 20260903034433 | 22 | 106 | 0.0 | 0.0 | 0.00 | 0.99 | 1.02 | 93 | 1017.0 |
| 20260903032338 | 22 | 106 | 0.0 | 0.0 | 0.00 | 0.99 | 1.02 | 93 | 1017.0 |
| 20260903031319 | 23 | 106 | 0.0 | 0.0 | 0.00 | 0.99 | 1.02 | 93 | 1017.1 |
| 20260903030308 | 23 | 106 | 0.0 | 4.8 | 0.00 | 0.99 | 1.02 | 93 | 1017.0 |
| 20260903025248 | 23 | 116 | 0.0 | 0.0 | 0.00 | 0.99 | 1.02 | 94 | 1016.9 |
| 20260903024305 | 23 | 200 | 0.0 | 0.0 | 0.00 | 0.99 | 1.02 | 94 | 1016.9 |
| 20260903023321 | 23 | 200 | 0.0 | 0.0 | 0.00 | 0.99 | 1.02 | 94 | 1017.0 |
| 20260903022258 | 23 | 200 | 0.0 | 0.0 | 0.00 | 0.99 | 1.02 | 93 | 1016.8 |
| 20260903021305 | 23 | 200 | 0.0 | 0.0 | 0.00 | 0.99 | 1.02 | 93 | 1016.7 |
| 20260903014011 | 23 | 200 | 0.0 | 0.0 | 0.00 | 0.99 | 1.02 | 93 | 1016.3 |
| 20260903013009 | 23 | 200 | 0.0 | 0.0 | 0.00 | 0.99 | 1.02 | 93 | 1016.6 |
| 20260903011956 | 23 | 200 | 0.0 | 0.0 | 0.00 | 0.99 | 1.02 | 93 | 1016.7 |
| 20260903010934 | 23 | 200 | 0.0 | 0.0 | 0.00 | 0.99 | 1.02 | 93 | 1016.9 |
| 20260903005946 | 23 | 200 | 0.0 | 0.0 | 0.00 | 0.99 | 1.02 | 93 | 1016.9 |
| 20260903004929 | 23 | 200 | 0.0 | 0.0 | 0.00 | 0.99 | 1.02 | 93 | 1016.9 |
| 20260903003905 | 23 | 200 | 0.0 | 0.0 | 0.00 | 0.99 | 1.02 | 92 | 1016.6 |
| 20260903002853 | 23 | 200 | 0.0 | 0.0 | 0.00 | 0.99 | 1.02 | 92 | 1016.5 |
| 20260903001819 | 23 | 200 | 0.0 | 0.0 | 0.00 | 0.99 | 1.02 | 92 | 1016.7 |
| 20260903000826 | 23 | 200 | 0.0 | 0.0 | 0.00 | 0.99 | 1.02 | 91 | 1016.5 |
| 20260902235826 | 23 | 200 | 0.0 | 0.0 | 0.00 | 0.99 | 1.02 | 91 | 1016.7 |
| 20260902233732 | 23 | 200 | 0.0 | 0.0 | 0.00 | 0.99 | 1.02 | 90 | 1016.7 |
| 20260902232710 | 24 | 200 | 0.0 | 0.0 | 0.00 | 0.99 | 1.02 | 89 | 1016.4 |
| 20260902224334 | 25 | 200 | 0.0 | 0.0 | 0.00 | 0.99 | 1.02 | 85 | 1016.9 |
| 20260902223318 | 25 | 200 | 0.0 | 0.0 | 0.00 | 0.99 | 1.02 | 87 | 1016.9 |
| 20260902221117 | 24 | 200 | 0.0 | 1.6 | 0.00 | 0.99 | 1.02 | 89 | 1016.8 |
| 20260902220112 | 24 | 200 | 0.0 | 0.0 | 0.00 | 0.99 | 1.02 | 92 | 1017.0 |
| 20260902215110 | 24 | 200 | 0.0 | 0.0 | 0.00 | 0.99 | 1.02 | 91 | 1017.1 |